This demonstration page uses our WeatherBlox Daily Observations layout. Learn more.

Left ArrowRight Arrow

38.83388, -104.82136

Hourly Observations for January 3, 2022

Temp ( °F °C ) Dew Point ( °F °C ) Humidity (%) Winds ( mph kmh ) Pressure ( in mb ) Visibility ( mi km ) Precip ( " mm )
12:54 am 00:54 Mostly Clear 29 -1.7 10 -12.2 45 45 ENE 7 11 30.22 1023 10 16 0.00 0.00
1:54 am 01:54 Mostly Clear 23 -5 7 -13.9 50 50 ENE 6 9 30.24 1024 10 16 0.00 0.00
2:54 am 02:54 Mostly Clear 29 -1.7 8 -13.3 41 41 ENE 8 13 30.21 1023 10 16 0.00 0.00
3:54 am 03:54 Mostly Clear 23 -5 7 -13.9 50 50 NE 7 11 30.22 1023 10 16 0.00 0.00
4:54 am 04:54 Mostly Clear 22 -5.6 7 -13.9 52 52 N 12 19 30.24 1024 10 16 0.00 0.00
5:54 am 05:54 Mostly Clear 24 -4.4 8 -13.3 50 50 N 9 15 30.25 1024 10 16 0.00 0.00
6:54 am 06:54 Partly Cloudy 23 -5 7 -13.9 50 50 N 9 15 30.26 1025 10 16 0.00 0.00
7:54 am 07:54 Mostly Cloudy 32 0 12 -11.1 43 43 NNW 5 7 30.19 1022 10 16 0.00 0.00
8:54 am 08:54 Mostly Cloudy 44 6.7 14 -10 30 30 NNE 3 6 30.15 1021 10 16 0.00 0.00
9:54 am 09:54 Mostly Cloudy 49 9.4 11 -11.7 21 21 Calm 30.14 1021 10 16 0.00 0.00
10:54 am 10:54 Partly Cloudy 51 10.6 12 -11.1 21 21 ESE 3 6 30.09 1019 10 16 0.00 0.00
11:54 am 11:54 Partly Cloudy 55 12.8 1 -17.2 11 11 Calm 30.04 1017 10 16 0.00 0.00
12:54 pm 12:54 Partly Cloudy 55 12.8 5 -15 13 13 ESE 5 7 30.01 1016 10 16 0.00 0.00
1:54 pm 13:54 Partly Cloudy 56 13.3 11 -11.7 17 17 S 3 6 30.01 1016 10 16 0.00 0.00
2:54 pm 14:54 Partly Cloudy 56 13.3 14 -10 19 19 ESE 3 6 29.98 1015 10 16 0.00 0.00
3:54 pm 15:54 Mostly Cloudy 53 11.7 21 -6.1 28 28 S 5 7 30.02 1017 10 16 0.00 0.00
4:54 pm 16:54 Mostly Cloudy 44 6.7 25 -3.9 47 47 ESE 8 13 30.05 1018 10 16 0.00 0.00
5:54 pm 17:54 Mostly Cloudy 40 4.4 24 -4.4 53 53 NE 8 13 30.05 1018 10 16 0.00 0.00
6:54 pm 18:54 Partly Cloudy 42 5.6 18 -7.8 38 38 E 9 15 30.04 1017 10 16 0.00 0.00
7:54 pm 19:54 Partly Cloudy 43 6.1 14 -10 31 31 SE 6 9 29.96 1014 10 16 0.00 0.00
8:54 pm 20:54 Partly Cloudy 37 2.8 16 -8.9 42 42 N 10 17 29.92 1013 10 16 0.00 0.00
9:54 pm 21:54 Partly Cloudy 43 6.1 12 -11.1 28 28 ENE 8 13 29.83 1010 10 16 0.00 0.00
10:54 pm 22:54 Mostly Cloudy 39 3.9 14 -10 36 36 ENE 7 11 29.83 1010 10 16 0.00 0.00
11:54 pm 23:54 Mostly Cloudy 38 3.3 13 -10.6 36 36 ENE 8 13 29.76 1008 10 16 0.00 0.00

Powered by AerisWeather